Theta_e
291 291 292 292 292 293 291 290 291 291 291 291 290 290 290 290 290 289 289 289 289 289 288 288 287 287 286 286 286 286 285 286 286 286 285 285 285 285 284 285 285 285
289 289 290 290 290 291 290 290 290 290 290 290 291 291 291 290 290 289 289 289 288 288 288 287 287 287 286 285 285 285 284 284 284 285 284 284 285 284 284 285 285 285
288 288 289 289 289 289 289 289 289 289 289 289 290 290 290 290 289 289 289 288 288 288 287 287 286 286 286 286 285 284 284 284 284 284 284 284 284 284 284 284 284 284
288 288 288 288 288 288 288 288 288 288 288 288 288 289 289 289 289 288 288 287 287 287 287 286 286 286 285 285 284 284 284 284 284 284 283 284 283 283 284 283 284 283
287 288 288 288 288 288 287 287 287 287 287 288 288 288 288 288 288 287 287 287 287 286 286 285 285 285 285 284 284 283 283 283 283 283 283 283 283 283 283 283 282 282
287 287 287 288 288 288 287 287 287 286 286 286 287 287 287 287 287 287 286 286 286 286 285 285 284 284 284 284 283 283 283 283 282 282 282 282 282 282 282 282 282 281
286 286 287 287 287 287 286 286 286 287 286 287 287 286 286 286 286 286 286 286 286 286 285 284 284 284 284 283 283 283 283 283 282 282 282 282 282 281 281 281 282 281
286 286 286 286 286 286 286 286 286 286 286 286 285 286 286 286 286 286 286 286 285 285 285 285 284 284 283 283 283 282 282 282 282 281 281 282 281 280 280 281 281 281
285 285 285 285 286 286 286 286 287 286 286 286 286 286 286 286 286 286 286 285 285 285 285 284 284 283 283 283 283 282 282 282 282 281 281 281 280 280 280 280 280 280
285 285 285 285 285 286 286 286 286 286 286 285 286 286 285 285 285 286 285 285 285 285 285 284 284 283 283 283 283 282 282 282 281 281 281 281 280 280 280 280 280 280
286 286 285 285 285 285 285 286 286 286 286 285 285 285 285 285 285 285 285 285 284 285 284 284 284 283 283 283 283 283 283 282 281 281 281 281 281 281 281 280 280 280
286 286 286 286 286 286 286 286 286 286 286 286 285 285 285 285 284 284 285 285 285 285 285 284 284 284 283 283 282 283 283 282 282 281 281 281 281 281 281 280 280 280
286 286 286 286 286 286 286 286 286 286 286 286 286 285 285 284 284 284 285 285 285 285 285 284 284 284 283 283 283 282 282 282 282 281 281 281 281 281 280 280 280 280
285 286 285 285 286 286 286 286 286 286 286 286 286 285 285 284 284 284 284 284 285 285 285 285 284 284 284 283 283 282 282 282 282 281 281 281 281 281 280 280 280 280
285 285 285 285 285 285 285 285 285 286 286 286 286 286 286 285 285 285 284 284 284 284 284 284 284 284 284 283 283 282 282 282 282 281 281 280 280 280 280 280 280 280
285 284 285 285 285 285 285 285 285 285 285 285 285 285 285 285 285 284 284 284 283 283 283 283 283 284 284 285 285 283 282 282 282 281 281 280 280 279 279 279 279 279
284 284 284 284 284 284 285 284 284 284 284 284 284 284 284 284 284 284 284 284 284 283 283 283 283 284 285 287 287 286 283 282 281 281 281 280 280 279 279 278 278 278
284 284 284 284 284 284 284 284 283 283 283 283 283 283 283 283 283 283 284 283 283 283 283 283 283 285 286 287 287 287 286 282 282 281 280 280 280 279 279 278 277 277
284 283 283 283 284 284 283 283 282 282 282 282 282 283 283 283 283 283 283 283 283 283 283 283 283 285 286 287 287 287 287 284 282 281 280 280 280 279 279 278 277 276
283 283 283 283 283 283 283 282 282 282 282 282 282 282 282 282 282 282 282 282 283 282 283 283 283 285 286 287 287 287 287 286 282 281 280 280 279 279 278 278 277 276
282 283 283 283 282 282 282 281 282 282 282 282 282 282 282 282 282 282 282 282 282 282 282 282 283 285 286 286 287 287 288 287 283 281 280 280 279 279 278 277 277 276
281 282 283 282 282 281 281 281 281 282 282 282 281 281 281 281 281 281 281 281 281 281 281 281 282 285 285 286 287 287 288 286 283 281 280 279 279 278 278 277 277 275
280 282 281 281 280 280 280 280 280 281 281 282 280 280 280 280 280 280 280 280 280 280 280 280 281 283 285 286 286 287 287 285 283 281 280 278 278 278 277 276 276 275
279 281 280 279 278 278 278 279 279 280 281 281 280 279 279 279 279 279 279 279 279 279 280 280 280 282 284 285 286 287 286 284 283 281 279 278 277 277 277 275 275 277
278 279 278 277 276 276 276 276 277 279 280 280 279 279 279 279 278 278 278 278 278 279 281 280 280 281 283 284 285 286 286 284 283 280 278 277 276 275 275 275 275 276
277 276 275 274 273 273 274 275 277 278 279 279 279 279 278 278 278 278 277 277 278 278 278 279 279 279 281 284 285 286 287 284 282 280 278 276 275 274 273 274 274 274
Wind_Speed
5 4 6 6 6 5 5 6 6 7 7 7 8 8 9 8 8 10 10 8 9 8 9 9 9 9 9 9 10 9 10 10 9 9 11 9 9 10 9 10 9 8
6 6 6 5 5 4 5 6 8 9 9 8 7 6 6 7 9 9 10 10 9 10 9 8 9 10 9 9 10 10 9 9 11 7 10 12 10 10 11 11 10 7
6 6 7 7 6 5 6 5 6 7 8 9 8 8 8 8 8 9 9 9 9 9 10 9 9 10 10 9 9 10 9 10 11 9 9 12 9 10 10 10 8 10
6 6 7 7 6 6 5 6 7 7 7 7 9 9 9 9 10 9 9 11 9 9 9 9 10 9 9 9 10 9 9 10 9 9 10 8 9 9 9 8 8 8
6 7 7 7 7 7 6 8 9 9 9 10 8 8 8 9 8 9 10 10 10 9 9 10 9 9 9 9 10 9 9 9 9 10 10 10 8 9 8 9 10 10
6 6 6 7 8 7 8 8 9 9 10 10 12 9 10 10 11 10 10 10 10 10 10 10 10 9 10 9 9 10 9 9 9 10 10 11 9 8 7 9 10 11
7 7 8 7 8 8 9 9 9 9 9 9 6 10 9 10 12 13 11 11 10 12 12 11 12 11 10 9 10 11 9 9 9 11 12 10 9 10 9 10 10 11
8 7 7 7 8 9 10 9 9 9 9 7 10 10 9 11 10 11 10 11 11 12 11 11 11 12 11 10 11 11 11 8 10 12 12 11 10 11 11 9 10 11
8 7 7 8 9 9 10 10 10 10 8 10 11 9 9 10 11 10 11 11 12 12 12 11 11 11 11 12 12 13 13 11 10 13 13 13 13 13 12 10 11 11
10 8 7 8 8 8 10 10 10 9 9 10 10 9 10 10 11 12 11 12 12 12 11 11 12 12 12 12 14 14 13 13 12 12 12 12 13 12 13 13 14 12
10 10 9 8 8 8 9 10 10 10 8 10 10 10 10 10 10 10 12 12 12 12 15 15 13 12 12 12 11 11 14 13 12 12 13 13 12 12 12 14 14 15
14 12 12 12 12 10 9 8 8 8 9 9 9 11 11 11 11 10 12 14 15 15 15 15 14 14 14 12 12 12 12 11 10 11 13 12 12 12 13 14 14 14
14 14 13 12 11 12 11 10 9 9 8 9 8 11 11 10 11 12 12 13 15 14 13 12 13 13 12 12 12 13 12 12 14 11 12 11 12 12 12 13 12 12
11 12 13 13 13 11 10 10 11 11 10 9 8 10 10 11 12 12 12 12 13 14 13 12 12 12 12 12 11 11 14 16 16 15 11 12 12 12 11 12 13 12
10 10 10 12 13 13 13 12 10 10 11 10 9 10 9 10 11 12 12 13 13 13 13 13 13 14 13 13 15 16 16 16 17 16 14 13 13 14 13 11 11 11
9 9 10 10 11 12 13 13 13 11 9 9 10 11 10 10 10 11 12 13 13 13 13 13 14 13 15 20 16 15 16 14 14 15 16 15 15 14 11 9 11 10
11 11 10 11 10 11 11 12 13 12 11 11 9 9 10 11 11 12 12 12 13 14 15 14 14 13 20 20 24 23 16 15 15 14 14 15 15 16 14 10 10 9
12 13 13 13 11 11 11 11 12 12 12 11 10 10 9 9 11 12 12 13 12 14 15 15 15 15 19 22 24 25 21 16 14 13 13 15 14 13 9 9 10 10
10 11 12 12 12 12 11 10 10 11 12 12 12 10 9 9 11 12 12 12 13 15 15 15 14 13 19 21 23 24 25 20 13 14 13 14 10 11 10 10 10 10
10 10 11 11 11 12 12 11 11 10 10 9 10 10 9 10 10 11 12 12 13 14 14 14 15 12 19 21 22 24 25 22 14 13 13 14 15 12 10 11 12 11
11 11 11 11 11 11 12 12 12 11 11 9 8 9 10 11 10 11 11 11 12 12 13 14 13 15 19 22 22 24 25 21 14 13 13 13 13 12 11 10 12 10
13 13 12 11 12 12 12 12 12 12 12 11 9 8 8 8 10 9 11 12 12 12 12 14 12 14 19 21 23 23 25 16 14 14 14 13 13 14 10 8 10 11
13 12 13 13 13 13 14 13 13 13 12 9 9 9 9 9 10 10 10 11 11 11 12 13 12 13 18 21 22 24 20 13 13 12 13 13 13 12 9 12 10 12
12 11 12 14 14 14 15 15 14 13 12 9 9 11 10 10 9 9 10 10 11 12 12 13 12 12 18 20 23 24 20 14 12 13 13 13 11 11 9 7 10 21
12 11 11 13 14 15 14 16 16 14 13 11 10 9 11 9 8 9 10 9 10 12 12 14 12 11 17 20 23 24 20 13 12 11 12 12 9 6 4 5 8 15
10 10 11 12 14 16 16 15 14 13 13 12 11 9 10 9 8 9 11 11 9 10 10 11 12 10 11 20 22 24 26 15 11 12 14 13 10 8 7 6 7 7
Wind_Direction
252 260 252 247 234 218 199 199 202 202 199 196 198 199 200 193 180 192 204 205 208 206 200 194 188 185 188 180 181 181 188 189 187 182 183 179 189 179 183 187 185 190
258 251 248 251 252 248 234 198 200 205 207 204 208 200 202 192 200 191 196 199 199 204 197 192 193 194 187 185 183 187 187 188 192 172 182 184 188 182 191 187 185 179
264 258 254 251 249 247 230 213 207 214 215 215 207 202 201 197 194 194 197 199 200 199 197 195 193 195 192 189 185 193 190 187 192 180 183 188 180 188 189 179 185 181
268 255 255 255 252 248 233 216 209 208 208 208 211 209 199 193 190 189 195 200 201 200 200 196 199 193 194 189 184 197 194 195 192 171 186 187 191 185 182 177 178 179
257 262 253 254 245 232 218 215 216 212 209 211 205 201 198 193 189 187 191 193 197 197 194 200 197 199 191 193 190 195 193 195 185 183 188 190 187 183 181 174 178 180
265 251 251 247 243 239 235 228 225 219 217 213 212 198 202 192 196 196 194 193 193 193 195 195 195 195 191 192 190 202 192 194 186 180 192 192 184 187 176 185 178 184
272 263 259 250 254 245 243 239 232 225 225 223 206 212 199 201 202 201 197 198 194 199 196 191 190 190 189 189 196 199 197 193 177 188 192 194 177 187 187 186 188 184
284 275 262 259 253 252 246 245 240 235 230 216 217 217 200 208 205 203 202 200 199 203 200 197 193 191 186 189 196 196 197 190 188 187 195 191 181 189 187 189 183 183
304 293 279 266 258 256 255 251 247 241 228 225 226 220 210 211 207 204 203 202 206 207 202 200 196 195 193 193 196 195 195 192 190 189 191 187 187 192 184 179 183 191
334 315 295 277 265 258 258 257 253 249 234 233 233 223 218 215 213 210 206 205 210 209 203 201 198 200 199 202 201 194 195 194 189 191 195 195 190 182 180 183 188 180
355 345 334 308 283 272 262 260 257 252 244 238 234 233 226 217 217 212 213 211 211 209 209 208 206 200 200 203 204 206 204 197 190 189 194 197 192 188 183 184 184 191
354 355 350 341 327 311 293 277 264 253 247 242 231 236 230 223 220 213 214 216 217 216 213 213 209 207 208 205 202 203 206 208 203 195 194 194 191 192 188 189 189 187
350 348 346 343 338 327 319 311 298 282 263 254 237 234 234 228 222 222 221 221 221 218 216 211 209 208 209 207 206 203 203 203 205 203 202 199 199 197 192 191 191 187
347 342 343 340 338 334 325 317 309 303 289 273 255 244 239 234 229 224 226 223 225 221 220 214 212 212 209 209 205 202 204 208 207 207 202 207 205 200 195 192 195 193
343 342 340 338 337 336 336 329 319 303 296 287 270 260 248 241 237 232 231 229 228 226 223 217 218 216 213 208 207 207 209 209 208 207 206 208 211 210 207 199 195 195
338 337 337 334 335 336 332 330 327 322 307 292 286 273 260 251 245 236 233 232 230 227 224 222 223 222 216 210 203 204 205 208 208 210 209 208 208 210 208 202 198 193
339 338 337 337 334 330 331 331 329 326 320 309 292 275 266 259 246 244 237 234 231 229 227 227 226 225 216 207 207 204 200 206 207 210 207 208 208 206 207 193 195 192
336 336 337 335 336 335 332 328 324 324 320 314 304 293 275 260 252 246 243 236 234 232 231 230 230 228 216 212 209 206 201 203 205 208 206 209 207 204 199 183 184 182
332 331 330 329 330 329 328 324 322 319 318 316 309 296 287 272 258 250 245 240 234 236 235 233 234 222 218 215 212 209 205 201 211 207 206 210 204 203 193 186 180 179
329 328 324 323 323 324 324 322 319 314 306 302 301 302 288 274 264 255 249 242 237 236 239 239 236 228 219 216 213 210 207 201 211 207 211 211 209 201 191 185 184 180
328 323 321 320 322 320 320 317 316 313 310 303 299 293 291 282 272 264 253 246 244 240 242 241 238 225 220 218 214 210 209 204 208 210 213 214 211 207 197 187 183 180
326 322 320 322 322 320 316 314 313 311 309 308 302 290 277 272 272 265 261 254 246 244 244 245 241 224 219 217 214 211 207 206 208 210 213 212 211 210 201 185 180 176
321 318 319 321 321 318 316 313 311 308 305 303 296 287 283 275 269 262 259 256 251 244 242 245 244 227 221 216 214 210 206 208 208 210 215 213 212 207 188 188 181 181
314 316 318 318 317 316 314 311 308 303 296 294 290 290 283 272 266 266 258 252 249 245 238 243 243 229 222 218 213 210 204 205 206 209 213 212 211 204 200 185 182 187
308 311 314 312 311 310 311 307 303 299 297 297 285 275 272 272 264 260 260 250 245 244 241 239 244 231 220 219 215 212 208 206 205 206 210 210 199 187 182 177 185 194
304 311 309 308 306 305 305 300 297 296 293 291 287 278 276 270 260 256 257 256 245 242 242 238 240 234 223 222 218 214 210 206 204 202 209 203 191 187 177 188 186 182